DateTimeUTC,F1_A11,F1_S11,BsB_S11,BsG_S11,BsR_S11,BbsB_S11,BbsG_S11,BbsR_S11,BaB_A11,BaG_A11,BaR_A11,Tu_S11,T_S11,Uu_S11,U_S11,P_S11,T1_A11
2021-10-25T04:00:00Z,00000200,21000000,,,,,,,-000.02,-000.32,-000.39,19.7,26.6,,00.0,0629.3,31.2
2021-10-25T04:01:00Z,00000200,21000000,,,,,,,-000.53,-000.55,-000.08,19.7,26.6,,00.0,0629.3,31.2
2021-10-25T04:02:00Z,00000200,21000000,,,,,,,0000.51,0000.37,-000.03,19.6,26.5,,00.0,0629.3,31.2
2021-10-25T04:03:00Z,00000200,61000000,,,,,,,-000.32,-000.19,0000.03,19.6,26.5,,00.0,0629.3,31.2
2021-10-25T04:04:00Z,00000200,41000000,0000.64,-000.28,0000.19,-000.47,-000.17,-000.03,0000.41,0000.26,0000.23,19.6,26.3,,00.0,0630.1,31.2
2021-10-25T04:05:00Z,00000200,01000000,-000.05,0000.11,-000.16,0000.00,-000.09,-000.29,-000.15,0000.14,-000.04,19.6,26.3,,00.0,0630.1,31.2
2021-10-25T04:06:00Z,00000200,01000000,0000.30,-000.12,-000.13,-000.10,0000.12,0000.09,0000.42,0000.33,0000.42,19.6,26.2,,00.0,0630.1,31.2
2021-10-25T04:07:00Z,00000200,01000000,-000.42,0000.09,-000.05,-000.23,-000.09,0000.38,0000.15,0000.25,0000.12,19.7,26.3,,00.0,0630.1,31.2
2021-10-25T04:08:00Z,00000200,01000000,-000.09,0000.21,0000.26,0000.24,-000.08,0000.30,-000.11,-000.06,-000.15,19.7,26.3,,00.0,0630.2,31.2
2021-10-25T04:09:00Z,00000200,01000000,0000.63,-000.03,-000.14,-000.05,-000.08,-000.20,0000.06,0000.17,0000.46,19.8,26.3,,00.0,0630.2,31.2
2021-10-25T04:10:00Z,00000200,01000000,0000.78,0000.28,0000.24,0000.24,0000.04,0000.24,0000.09,0000.56,-000.30,19.9,26.4,,00.0,0630.2,31.2
2021-10-25T04:11:00Z,00000200,01000000,0000.52,0000.00,0000.09,-000.02,-000.25,-000.24,0000.28,-000.26,0000.31,19.9,26.4,,00.0,0630.3,31.2
2021-10-25T04:12:00Z,00000200,01000000,0000.17,-000.07,-000.22,0000.44,-000.37,0000.10,-000.25,0000.22,-000.12,20.0,26.4,,00.0,0630.2,31.2
2021-10-25T04:13:00Z,00000200,01000000,-000.06,0000.23,0000.07,-000.05,-000.22,0000.11,0000.05,-000.66,-000.15,19.9,26.4,,00.0,0630.2,31.3
2021-10-25T04:14:00Z,00000200,01000000,0001.61,-000.13,-000.20,0000.35,0000.29,0000.20,-000.39,-000.12,-000.04,19.8,26.4,,00.0,0630.3,31.2
2021-10-25T04:15:00Z,00000200,01000000,0000.06,0000.10,0000.19,0000.02,0000.16,0000.17,0000.34,-000.03,0000.04,19.8,26.3,,00.0,0630.3,31.2
2021-10-25T04:16:00Z,00000200,01000000,0000.52,0000.08,0000.11,0000.56,0000.01,-000.02,-000.31,-000.18,-000.27,19.7,26.3,,00.0,0630.3,31.2
2021-10-25T04:17:00Z,00000200,01000000,-000.13,-000.15,0000.21,0000.20,-000.66,0000.04,0000.32,0000.69,0000.38,19.6,26.3,,00.0,0630.3,31.2
2021-10-25T04:18:00Z,00000200,01000000,0000.07,0000.04,0000.46,-000.10,-000.02,0000.28,0000.03,-000.58,-000.17,19.6,26.2,,00.0,0630.4,31.2
2021-10-25T04:19:00Z,00000200,01000000,0000.10,0000.26,-000.25,0000.75,-000.09,-000.19,-000.24,0000.06,-000.26,19.5,26.2,,00.0,0630.4,31.2
2021-10-25T04:20:00Z,00000200,01000000,0000.90,-000.28,0000.10,-000.37,0000.04,0000.34,-000.07,0000.19,0000.23,19.5,26.2,,00.0,0630.4,31.2
2021-10-25T04:21:00Z,00000200,01000000,0000.44,-000.04,0000.08,0000.11,0000.01,0000.08,0000.02,-000.22,-000.05,19.5,26.2,,00.0,0630.4,31.2
2021-10-25T04:22:00Z,00000200,01000000,0000.19,0000.08,-000.19,-000.08,0000.16,0000.23,0000.48,0000.45,0000.20,19.6,26.2,,00.0,0630.4,31.2
2021-10-25T04:23:00Z,00000200,01000000,-000.49,0000.07,0000.28,0000.25,0000.15,0000.29,-000.19,0000.14,0000.58,19.7,26.2,,00.0,0630.4,31.2
2021-10-25T04:24:00Z,00000200,01000000,-000.14,0000.18,0000.07,0000.16,-000.16,0000.21,0000.50,0000.32,-000.11,19.7,26.3,,00.0,0630.5,31.2
2021-10-25T04:25:00Z,00000200,01000000,-000.01,-000.02,-000.02,-000.19,-000.09,0000.11,0000.05,-000.04,0000.29,19.8,26.3,,00.0,0630.4,31.2
2021-10-25T04:26:00Z,00000200,01000000,-000.00,0000.09,0000.14,0000.21,-000.16,0000.33,0000.34,0000.44,-000.11,19.9,26.3,,00.0,0630.4,31.2
2021-10-25T04:27:00Z,00000200,01000000,-000.30,0000.32,0000.39,0000.05,-000.08,0000.18,-000.42,0000.04,0000.06,19.9,26.4,,00.0,0630.5,31.2
2021-10-25T04:28:00Z,00000200,01000000,-000.21,0000.31,0000.34,0000.22,-000.29,0000.12,0000.04,-000.41,-000.14,19.8,26.3,,00.0,0630.5,31.2
2021-10-25T04:29:00Z,00000200,01000000,0000.68,-000.07,-000.09,0000.50,-000.17,0000.34,0000.66,0000.06,0000.14,19.8,26.3,,00.0,0630.5,31.2
2021-10-25T04:30:00Z,00000200,01000000,0000.43,-000.18,-000.09,0000.05,0000.06,0000.17,-000.35,0000.01,-000.33,19.7,26.3,,00.0,0630.5,31.2
2021-10-25T04:31:00Z,00000200,01000000,0000.24,-000.21,-000.22,0000.45,0000.30,0000.19,-000.23,-000.20,0000.16,19.6,26.2,,00.0,0630.5,31.2
2021-10-25T04:32:00Z,00000200,01000000,-000.42,0000.16,0000.16,0000.13,0000.09,0000.16,-000.16,-000.13,-000.05,19.6,26.2,,00.0,0630.5,31.2
2021-10-25T04:33:00Z,00000200,01000000,-000.12,-000.16,0000.05,-000.22,-000.02,0000.11,0000.21,-000.07,-000.08,19.5,26.1,,00.0,0630.5,31.2
2021-10-25T04:34:00Z,00000200,01000000,0000.53,0000.12,0000.24,0000.41,0000.26,0000.47,0000.40,0000.82,0000.44,19.5,26.1,,00.0,0630.5,31.2
2021-10-25T04:35:00Z,00000200,01000000,0000.74,0000.08,-000.30,0000.22,0000.03,0000.18,-000.09,-000.36,-000.26,19.5,26.1,,00.0,0630.5,31.2
2021-10-25T04:36:00Z,00000200,01000000,0000.66,-000.04,0000.38,-000.05,-000.09,-000.10,0000.13,0000.08,0000.44,19.5,26.1,,00.0,0630.5,31.2
2021-10-25T04:37:00Z,00000200,01000000,-000.16,-000.29,-000.02,0000.10,-000.23,-000.01,0000.12,0000.42,-000.16,19.5,26.1,,00.0,0630.5,31.2
2021-10-25T04:38:00Z,00000200,01000000,-000.22,0000.44,0000.14,0001.14,0000.34,0000.30,0000.07,-000.05,0000.22,19.6,26.2,,00.0,0630.5,31.2
2021-10-25T04:39:00Z,00000200,01000000,0000.15,0000.15,0000.09,0000.33,-000.35,-000.28,0000.63,0000.66,0000.77,19.7,26.2,,00.0,0630.6,31.2
2021-10-25T04:40:00Z,00000200,01000000,-000.04,0000.04,-000.14,-000.09,0000.14,-000.10,-000.33,-000.20,0000.16,19.8,26.3,,00.0,0630.5,31.2
2021-10-25T04:41:00Z,00000200,01000000,0000.54,0000.22,0000.15,0000.17,0000.02,0000.47,0000.55,0000.17,-000.34,19.9,26.3,,00.0,0630.6,31.2
2021-10-25T04:42:00Z,00000200,01000000,0000.33,-000.04,0000.25,0000.41,-000.27,0000.33,-000.44,0000.11,0000.30,20.0,26.3,,00.0,0630.6,31.2
2021-10-25T04:43:00Z,00000200,01000000,0000.48,-000.12,-000.00,0000.07,0000.11,-000.08,0000.21,0000.35,-000.03,20.0,26.4,,00.0,0630.6,31.2
2021-10-25T04:44:00Z,00000200,01000000,0000.57,0000.12,0000.00,0000.07,-000.12,-000.19,0000.09,-000.21,-000.28,20.0,26.4,,00.0,0630.7,31.2
2021-10-25T04:45:00Z,00000200,01000000,-000.06,0000.32,0000.06,-000.06,-000.05,-000.04,-000.01,-000.10,0000.44,19.9,26.4,,00.0,0630.7,31.2
2021-10-25T04:46:00Z,00000200,01000000,0000.40,-000.10,-000.20,0000.13,0000.01,-000.17,0000.05,0000.22,-000.02,19.9,26.3,,00.0,0630.6,31.2
2021-10-25T04:47:00Z,00000200,01000000,0000.43,0000.03,-000.32,0000.12,0000.25,-000.04,0000.07,0000.32,-000.03,19.8,26.3,,00.0,0630.7,31.2
2021-10-25T04:48:00Z,00000200,01000000,0000.20,-000.15,0000.33,0000.22,0000.18,0000.19,-000.14,-000.73,-000.35,19.7,26.2,,00.0,0630.7,31.2
2021-10-25T04:49:00Z,00000200,01000000,0000.28,0000.09,0000.14,0000.96,0000.13,0000.41,-000.27,0000.01,0000.01,19.7,26.2,,00.0,0630.7,31.2
2021-10-25T04:50:00Z,00000200,01000000,0000.30,0000.09,-000.03,0000.02,0000.08,-000.06,0000.44,0000.31,0000.42,19.6,26.2,,00.0,0630.7,31.2
2021-10-25T04:51:00Z,00000200,01000000,0000.59,0000.28,0000.05,0000.08,0000.02,0000.61,-000.03,0000.08,-000.02,19.7,26.2,,00.0,0630.7,31.2
2021-10-25T04:52:00Z,00000200,01000000,0000.70,-000.11,0000.21,0000.20,-000.26,0000.39,0000.16,-000.25,0000.09,19.7,26.2,,00.0,0630.7,31.2
2021-10-25T04:53:00Z,00000200,01000000,-000.44,0000.01,-000.11,-000.01,0000.02,0000.07,0000.29,0000.74,0000.44,19.8,26.3,,00.0,0630.7,31.2
2021-10-25T04:54:00Z,00000200,01000000,0000.27,0000.03,0000.26,0000.09,-000.03,0000.27,0000.17,-000.32,-000.21,19.9,26.3,,00.0,0630.7,31.2
2021-10-25T04:55:00Z,00000200,01000000,-000.10,-000.10,-000.41,0000.64,0000.16,0000.07,0000.07,0000.38,0000.21,19.9,26.3,,00.0,0630.8,31.3
2021-10-25T04:56:00Z,00000200,01000000,0000.32,0000.29,-000.34,-000.02,-000.20,-000.05,-000.36,0000.33,0000.10,20.0,26.4,,00.0,0630.8,31.3
2021-10-25T04:57:00Z,00000200,41000000,,,,,,,0000.88,0000.36,0000.31,20.1,26.4,,00.0,0630.8,31.3
2021-10-25T04:58:00Z,00000200,61000000,,,,,,,-000.56,-000.30,-000.28,19.8,26.5,,00.0,0629.9,31.3
2021-10-25T04:59:00Z,00000200,21000000,,,,,,,0000.20,-000.12,0000.03,19.7,26.6,,00.0,0629.9,31.2
